This demonstration page uses our WeatherBlox Daily Observations layout. Learn more.

Left ArrowRight Arrow

41.86663, -103.66717

Hourly Observations for March 8, 2016

Temp ( °F °C ) Dew Point ( °F °C ) Humidity (%) Winds ( mph kmh ) Pressure ( in mb ) Visibility ( mi km ) Precip ( " mm )
12:53 am 00:53 Cloudy with Light Snow 34 1 N/A N/A WNW 13 20 29.70 1006 4 6 0.01 0.25
1:21 am 01:21 Cloudy with Light Snow 34 1 N/A N/A W 12 19 29.83 1010 3 5 0.01 0.25
1:53 am 01:53 Cloudy with Light Snow 34 1 N/A N/A W 13 20 29.74 1007 3 5 0.02 0.51
2:53 am 02:53 Cloudy with Light Snow 34 1 N/A N/A WNW 10 17 29.75 1008 8 13 0.01 0.25
3:18 am 03:18 Cloudy with Light Rain 34 1 N/A N/A WNW 14 22 29.85 1011 10 16 N/A
3:38 am 03:38 Cloudy with Light Rain 36 2 N/A N/A WNW 15 24 29.83 1010 10 16 N/A
3:53 am 03:53 Cloudy 36 2 N/A N/A W 14 22 29.76 1008 10 16 N/A
4:53 am 04:53 Cloudy 37 2.8 37 2.8 100 100 WNW 13 20 29.77 1008 10 16 N/A
5:53 am 05:53 Cloudy 38 3.3 37 2.8 97 97 WNW 15 24 29.80 1009 10 16 N/A
6:53 am 06:53 Cloudy 38 3.3 33 0.6 83 83 WNW 16 26 29.82 1010 10 16 N/A
7:31 am 07:31 Cloudy 39 3.9 31 -0.6 73 73 WNW 15 24 29.85 1011 10 16 N/A
7:53 am 07:53 Cloudy 39 3.9 32 undefined 76 76 WNW 16 26 29.84 1011 10 16 N/A
8:53 am 08:53 Mostly Cloudy 42 5.6 33 0.6 71 71 NW 20 31 29.83 1010 10 16 N/A
9:53 am 09:53 Cloudy 46 7.8 32 undefined 58 58 NW 21 33 29.84 1011 10 16 N/A
10:53 am 10:53 Partly Cloudy 49 9.4 28 -2.2 44 44 NNW 18 30 29.84 1011 10 16 N/A
11:53 am 11:53 Mostly Cloudy 50 10 23 -5 35 35 NW 17 28 29.84 1010 10 16 N/A
12:53 pm 12:53 Cloudy 50 10 23 -5 35 35 NW 14 22 29.83 1010 10 16 N/A
1:53 pm 13:53 Cloudy 50 10 23 -5 35 35 N 12 19 29.83 1010 10 16 N/A
2:53 pm 14:53 Cloudy 52 11.1 21 -6.1 30 30 N 10 17 29.80 1009 10 16 N/A
3:53 pm 15:53 Sunny 52 11.1 20 -6.7 28 28 NNE 9 15 29.80 1009 10 16 N/A
4:53 pm 16:53 Sunny 52 11.1 21 -6.1 30 30 N 3 6 29.80 1009 10 16 N/A
5:53 pm 17:53 Sunny 49 9.4 20 -6.7 32 32 N N/A 29.80 1009 10 16 N/A
6:53 pm 18:53 Clear 44 6.7 24 -4.4 45 45 S 6 9 29.84 1011 10 16 N/A
7:53 pm 19:53 Clear 40 4.4 27 -2.8 60 60 S 5 7 29.86 1011 10 16 N/A
8:53 pm 20:53 Clear 34 1.1 26 -3.3 73 73 N N/A 29.89 1012 10 16 N/A
9:53 pm 21:53 Clear 31 -0.6 26 -3.3 82 82 N N/A 29.89 1012 10 16 N/A
10:53 pm 22:53 Partly Cloudy 32 undefined 25 -3.9 75 75 N N/A 29.88 1012 10 16 N/A
11:53 pm 23:53 Clear 30 -1.1 25 -3.9 82 82 N 6 9 29.87 1012 10 16 N/A

Powered by AerisWeather